EW3394 Weather Reports


time (UTC)temp
F
wind
direction
speed
knots
gust
knots
rain 1hr
in
rain 24hr
in
rain mn
in
humidity
%
barometer
mb
20260510104514 52 193 0.9 3.5 0.00 0.22 0.00 95 1011.3
20260510103016 51 212 0.9 6.1 0.00 0.22 0.00 95 1011.2
20260510101516 51 360 0.0 3.5 0.00 0.24 0.00 95 1010.9
20260510100018 51 360 0.9 2.6 0.00 0.26 0.00 95 1010.7
20260510094529 51 180 0.0 6.1 0.00 0.29 0.00 95 1010.3
20260510093012 51 180 0.0 3.5 0.00 0.34 0.00 95 1010.6
20260510091523 50 219 0.0 2.6 0.00 0.38 0.00 95 1010.3
20260510090020 51 246 0.9 2.6 0.00 0.41 0.00 95 1010.0
20260510084521 51 360 0.0 4.3 0.00 0.43 0.00 96 1010.1
20260510083021 50 360 0.9 3.5 0.00 0.45 0.00 96 1009.7
20260510081516 50 190 0.0 4.3 0.00 0.49 0.00 95 1009.9
20260510080005 50 360 0.0 2.6 0.00 0.52 0.00 95 1010.1
20260510074505 50 360 0.0 0.0 0.00 0.54 0.00 95 1010.5
20260510073008 50 360 0.0 1.7 0.00 0.55 0.00 95 1010.8
20260510071514 50 360 0.0 0.9 0.00 0.55 0.00 95 1011.2
20260510070018 50 251 0.0 0.9 0.00 0.55 0.00 95 1011.0
20260510064507 50 360 0.9 3.5 0.00 0.55 0.00 95 1011.0
20260510063006 50 360 0.0 0.9 0.00 0.55 0.00 95 1010.8
20260510061518 50 360 0.0 0.9 0.00 0.55 0.00 94 1010.4
20260510060040 50 360 0.0 0.9 0.00 0.55 0.00 93 1010.2
20260510054524 51 360 0.0 2.6 0.00 0.55 0.00 94 1010.2
20260510053003 51 200 0.0 0.9 0.00 0.55 0.00 94 1010.6
20260510051509 51 203 0.0 1.7 0.00 0.55 0.00 94 1010.6
20260510050012 51 360 0.0 1.7 0.00 0.55 0.00 94 1010.6
20260510044518 50 360 0.9 3.5 0.00 0.55 0.00 94 1010.2
20260510043022 50 360 0.9 4.3 0.00 0.55 0.00 93 1010.2
20260510041513 51 360 0.0 1.7 0.00 0.55 0.00 92 1010.1
20260510040008 51 360 0.0 1.7 0.00 0.55 0.00 92 1010.4
20260510034514 52 360 0.0 3.5 0.00 0.55 0.55 92 1010.4
20260510033020 52 165 0.0 1.7 0.00 0.55 0.55 92 1010.6
20260510031528 52 161 0.0 3.5 0.00 0.55 0.55 92 1010.4
20260510030025 52 360 0.0 4.3 0.00 0.55 0.55 91 1010.2
20260510024512 53 360 0.9 3.5 0.00 0.55 0.55 92 1010.2
20260510023033 53 360 0.0 2.6 0.00 0.55 0.55 92 1010.4
20260510021521 53 360 0.0 1.7 0.00 0.55 0.55 91 1010.2
20260510020022 53 360 0.0 2.6 0.00 0.55 0.55 91 1010.5
20260510014528 53 360 0.9 3.5 0.00 0.55 0.55 91 1010.5
20260510013014 53 360 0.9 4.3 0.00 0.55 0.55 92 1010.3
20260510011524 53 360 0.0 3.5 0.00 0.55 0.55 91 1010.1
20260510010026 53 360 0.0 5.2 0.00 0.55 0.55 91 1009.9
20260510004522 53 360 0.9 3.5 0.00 0.55 0.55 91 1010.1
20260510003026 53 360 0.0 1.7 0.00 0.55 0.55 91 1009.7
20260510001517 54 360 0.0 2.6 0.00 0.55 0.55 91 1009.6
20260510000020 54 360 0.9 3.5 0.00 0.55 0.55 91 1009.5
20260509234523 54 360 0.0 2.6 0.00 0.55 0.55 90 1009.2
20260509233028 54 360 0.9 7.8 0.00 0.55 0.55 90 1008.9
20260509231526 55 246 0.0 6.1 0.00 0.55 0.55 90 1008.9
20260509230016 55 201 0.9 7.0 0.00 0.55 0.55 91 1008.8
20260509224519 55 360 0.9 8.7 0.00 0.55 0.55 90 1009.0
20260509223026 55 213 0.0 4.3 0.00 0.55 0.55 92 1009.0
20260509221526 54 218 0.9 6.1 0.00 0.55 0.55 92 1009.3
20260509220027 54 150 1.7 7.8 0.00 0.55 0.55 93 1009.0
20260509214515 54 159 2.6 7.8 0.00 0.55 0.55 93 1009.2
20260509213005 54 135 0.9 7.0 0.00 0.55 0.55 93 1009.2
20260509211506 54 139 0.9 6.1 0.00 0.55 0.55 94 1009.3
20260509210008 54 142 1.7 7.0 0.00 0.55 0.55 94 1009.4
20260509204516 54 151 0.9 3.5 0.00 0.55 0.55 94 1009.5
20260509203033 54 155 0.9 7.8 0.00 0.55 0.55 94 1009.7
20260509201505 54 209 2.6 7.8 0.00 0.55 0.55 94 1009.9
20260509200008 54 253 0.9 5.2 0.01 0.55 0.55 95 1010.0
20260509194511 54 252 0.9 6.1 0.03 0.55 0.55 95 1010.3
20260509193013 53 164 0.9 4.3 0.05 0.55 0.55 96 1010.5
20260509191520 53 210 0.9 5.2 0.07 0.55 0.55 95 1010.7
20260509190006 52 227 0.9 4.3 0.08 0.54 0.54 95 1010.6
20260509184509 52 244 0.0 4.3 0.06 0.52 0.52 95 1010.9
20260509183018 52 141 0.0 1.7 0.05 0.50 0.50 95 1010.8
20260509181518 52 135 0.0 1.7 0.04 0.48 0.48 95 1010.9
20260509180020 51 135 0.0 1.7 0.04 0.46 0.46 95 1010.9
20260509174508 51 134 0.0 1.7 0.04 0.46 0.46 95 1010.8
20260509173012 50 134 0.9 3.5 0.04 0.45 0.45 95 1010.9
20260509171516 50 118 0.0 1.7 0.04 0.44 0.44 94 1011.3
20260509170018 50 117 0.0 1.7 0.02 0.42 0.42 95 1011.5
20260509164521 50 115 0.0 1.7 0.03 0.42 0.42 95 1011.8
20260509163035 50 91 0.9 2.6 0.02 0.41 0.41 95 1011.8
20260509161514 49 360 0.0 0.9 0.01 0.40 0.40 94 1012.0
20260509160016 49 84 0.0 1.7 0.02 0.40 0.40 94 1012.1
20260509154520 49 86 0.0 0.9 0.02 0.39 0.39 95 1012.2
20260509153025 48 88 0.0 2.6 0.03 0.39 0.39 95 1012.4
20260509151525 48 341 0.0 2.6 0.04 0.39 0.39 95 1012.4
20260509150012 48 341 0.0 1.7 0.03 0.38 0.38 96 1012.7
20260509144519 47 341 0.9 2.6 0.03 0.37 0.37 96 1012.8
20260509143028 46 344 0.0 1.7 0.02 0.36 0.36 96 1012.8
20260509141529 46 344 0.9 3.5 0.01 0.35 0.35 95 1012.9
20260509140026 45 42 0.0 1.7 0.01 0.35 0.35 96 1012.7
20260509134514 45 42 0.0 0.9 0.00 0.34 0.34 95 1012.7
20260509133022 45 42 0.0 1.7 0.00 0.34 0.34 96 1012.4
20260509131530 44 42 0.0 1.7 0.00 0.34 0.34 96 1012.4
20260509130023 44 336 0.0 0.9 0.00 0.34 0.34 95 1012.7
20260509124510 44 336 0.0 2.6 0.00 0.34 0.34 95 1012.9
20260509123017 43 72 0.0 0.9 0.00 0.34 0.34 96 1012.9
20260509121504 43 71 0.9 1.7 0.01 0.34 0.34 95 1012.9
20260509120012 43 71 0.0 1.7 0.01 0.34 0.34 95 1012.9
20260509114510 43 73 0.0 0.9 0.01 0.34 0.34 95 1012.9
20260509113014 42 73 0.0 0.9 0.01 0.34 0.34 95 1013.0
20260509111519 42 73 0.0 0.9 0.02 0.33 0.33 95 1013.0
20260509110002 42 74 0.0 1.7 0.04 0.33 0.33 95 1013.0